sat.trackr.live / text

‹ back to catalog

STARLINK-30887

NORAD 58394 · 2023-178W

PAYLOAD ACTIVE UNKNOWN

§ Identity

Operator
Country
US
Launch date
2023-11-20
Launch site
AFWTR
Launch vehicle
Mass (kg)
RCS (m²)

Purposes: comms

External: N2YO · Heavens-Above · Gunter

§ Orbital elements

Epoch: 2026-05-25T00:23:58.445088Z

Period
93.85 min
Inclination
53.1589°
Eccentricity
0.0001444
Mean motion
15.34357739 rev/d
Perigee alt
461.8 km
Apogee alt
463.8 km
Semi-major
6,841.0 km
B*
-8.0158e-5
RAAN
5.9228°
Arg perigee
127.8754°
Mean anomaly
232.2379°
Rev number
14,156

§ Raw data

STARLINK-308871 58394U 23178W   26145.01664867 -.00003080  00000+0 -80158-4 0  99942 58394  53.1589   5.9228 0001444 127.8754 232.2379 15.34357739141567

JSON: /api/v1/satellites/58394 · /tle

For live sub-satellite position, see the globe view (requires WebGL).

§ Visibility from observer

Set your observer location to see the next 7 days of passes ≥ 10°. The values pass through the URL so the page stays shareable.

No JS? Fill the form by hand. The geolocation button needs JavaScript.